User: anonymous   Login
Location: Cypress Hills Dark-Sky Preserve - CHICO
(49.6176°N, 110.2634°W)
Time: 21:21:31
(UTC-06:00)
Language:

SPOT 5 - Orbit

View from above orbital plane
View from above orbital plane
View from above satellite
View from above satellite

Ground track
Ground track

The orbit data is extracted from the following two-line orbital elements,

1 27421U 02021A   15184.90187596  .00000004  00000-0  21274-4 0  9999
2 27421 098.5102 239.9115 0001347 092.9918 017.8014 14.20894152682504
Epoch (UTC): 03 July 2015 21:38:42
Eccentricity: 0.0001347
inclination: 98.5102°
perigee height: 821 km
apogee height: 823 km
right ascension of ascending node: 239.9115°
argument of perigee: 92.9918°
revolutions per day: 14.20894152
mean anomaly at epoch: 17.8014°
orbit number at epoch: 68250

The dashed part of the orbit path shows where the satellite is in the earth's shadow,  

DLR